GFSGBSN_prec_precacc_339.txt.gz
Total_Precipitation_Accumulation
1.34 1.36 1.26 1.08 0.81 0.54 0.43 0.37 0.30 0.22 0.20 0.15 0.13 0.11 0.09 0.09 0.09 0.07 0.05 0.03 0.04 0.04 0.04 0.05 0.06 0.08 0.05 0.02 0.00 0.00 0.00 0.00 0.00 0.00 0.00 0.00 0.00 0.00 0.00 0.00 0.00 0.00 0.00 0.00 0.01 0.01 0.01
1.12 1.10 1.36 1.61 1.74 1.66 1.47 1.23 0.96 0.77 0.66 0.52 0.39 0.29 0.23 0.16 0.12 0.10 0.09 0.06 0.05 0.05 0.05 0.07 0.10 0.14 0.09 0.03 0.00 0.00 0.00 0.00 0.00 0.00 0.00 0.00 0.00 0.00 0.00 0.00 0.00 0.00 0.00 0.00 0.02 0.00 0.00
1.46 1.38 1.17 1.08 1.22 1.43 1.60 1.61 1.54 1.36 1.20 1.09 1.00 0.89 0.71 0.56 0.37 0.23 0.16 0.10 0.08 0.12 0.14 0.16 0.20 0.16 0.10 0.01 0.00 0.00 0.00 0.00 0.00 0.00 0.00 0.00 0.00 0.00 0.00 0.00 0.00 0.00 0.00 0.00 0.00 0.01 0.01
1.56 1.56 1.62 1.57 1.30 1.18 1.21 1.37 1.36 1.37 1.40 1.29 1.26 1.13 0.95 0.75 0.63 0.48 0.30 0.20 0.17 0.13 0.17 0.30 0.39 0.26 0.13 0.00 0.00 0.00 0.00 0.00 0.00 0.00 0.00 0.00 0.00 0.00 0.00 0.00 0.00 0.00 0.00 0.00 0.00 0.01 0.02
1.30 1.33 1.46 1.56 1.57 1.51 1.48 1.47 1.52 1.46 1.32 1.31 1.34 1.38 1.21 1.02 0.76 0.53 0.43 0.33 0.24 0.26 0.33 0.35 0.45 0.36 0.09 0.00 0.00 0.00 0.00 0.02 0.00 0.00 0.00 0.00 0.00 0.00 0.00 0.00 0.01 0.00 0.00 0.00 0.00 0.00 0.01
1.46 1.30 1.22 1.17 1.20 1.22 1.24 1.31 1.41 1.47 1.49 1.36 1.38 1.41 1.44 1.35 1.21 1.01 0.79 0.60 0.48 0.52 0.60 0.68 0.58 0.29 0.04 0.00 0.00 0.00 0.00 0.02 0.01 0.00 0.00 0.00 0.00 0.01 0.00 0.01 0.01 0.00 0.00 0.00 0.02 0.07 0.00
2.08 1.92 1.69 1.54 1.38 1.17 1.08 1.12 1.16 1.19 1.28 1.30 1.21 1.23 1.26 1.31 1.37 1.45 1.28 1.22 1.09 0.94 0.72 0.36 0.21 0.08 0.00 0.00 0.00 0.00 0.00 0.00 0.00 0.00 0.02 0.00 0.02 0.01 0.00 0.00 0.00 0.01 0.01 0.00 0.00 0.00 0.00
2.10 2.00 1.94 1.89 1.78 1.70 1.56 1.42 1.19 1.09 1.04 1.19 1.41 1.41 1.21 1.19 1.36 1.58 1.46 1.31 0.92 0.70 0.59 0.09 0.02 0.01 0.01 0.00 0.00 0.00 0.01 0.04 0.03 0.03 0.03 0.04 0.03 0.00 0.00 0.00 0.00 0.02 0.03 0.01 0.01 0.01 0.02
1.94 1.99 1.88 1.81 1.79 1.71 1.64 1.60 1.48 1.15 0.92 0.98 1.21 1.57 1.73 1.61 1.75 1.94 1.81 1.30 0.65 0.61 0.97 0.27 0.07 0.03 0.02 0.01 0.03 0.03 0.00 0.02 0.07 0.06 0.06 0.05 0.02 0.00 0.02 0.01 0.01 0.01 0.05 0.03 0.03 0.02 0.00
1.86 1.79 1.77 1.82 1.90 1.88 1.80 1.71 1.42 1.16 1.11 1.18 1.26 1.61 1.96 2.50 3.20 2.16 1.95 0.99 0.84 1.37 1.58 0.60 0.10 0.05 0.03 0.03 0.06 0.00 0.00 0.01 0.08 0.08 0.15 0.20 0.03 0.03 0.03 0.01 0.07 0.06 0.00 0.02 0.02 0.12 0.08
1.88 1.88 1.82 1.75 1.74 1.72 1.70 1.74 1.73 1.54 1.32 1.27 1.37 1.72 2.13 2.58 2.22 2.15 1.42 0.70 1.53 2.32 3.65 0.80 0.06 0.01 0.05 0.03 0.02 0.02 0.00 0.02 0.06 0.15 0.47 0.26 0.03 0.06 0.07 0.04 0.07 0.05 0.00 0.02 0.04 0.12 0.27
1.85 1.83 1.93 1.95 1.76 1.59 1.58 1.64 1.61 1.58 1.59 1.55 1.50 1.69 2.36 2.57 2.31 1.26 0.71 1.40 3.20 5.51 4.81 0.67 0.03 0.01 0.02 0.01 0.01 0.01 0.05 0.04 0.04 0.21 0.26 0.07 0.02 0.13 0.20 0.01 0.02 0.04 0.07 0.10 0.15 0.32 0.79
2.39 1.94 1.83 1.87 1.90 1.95 1.73 1.57 1.48 1.62 1.72 1.75 1.85 1.95 2.28 1.93 2.31 1.48 1.74 3.41 6.17 6.50 2.50 0.40 0.04 0.02 0.01 0.01 0.00 0.03 0.12 0.13 0.29 0.49 0.37 0.14 0.12 0.07 0.15 0.18 0.08 0.12 0.33 0.75 0.81 0.79 0.62
2.35 2.31 2.17 1.97 1.84 1.84 1.85 1.78 1.61 1.56 1.68 1.94 2.24 2.54 2.50 2.10 1.71 2.18 3.82 5.97 7.19 3.64 1.18 0.18 0.05 0.07 0.10 0.07 0.04 0.03 0.18 0.35 0.43 0.24 0.40 0.54 0.52 0.15 0.25 0.38 0.23 0.13 0.47 0.82 0.80 0.35 0.16
2.37 2.30 2.19 1.99 1.73 1.64 1.72 1.87 1.89 1.96 2.04 2.23 2.94 3.31 3.44 2.92 2.73 3.50 5.91 9.10 5.72 1.84 0.35 0.08 0.10 0.24 0.32 0.28 0.18 0.19 0.49 0.81 0.75 0.44 0.98 0.95 0.67 0.26 0.19 0.18 0.29 0.63 0.76 0.30 1.14 0.84 1.02
2.92 2.47 2.30 2.15 1.93 1.76 1.73 1.68 2.01 2.21 2.38 2.65 2.82 3.36 3.29 2.86 3.57 5.21 7.72 7.07 3.26 0.81 0.14 0.11 0.38 0.31 0.37 0.32 0.44 0.52 0.84 1.31 0.70 0.54 1.04 1.43 1.53 0.30 0.22 0.38 0.32 0.62 0.61 1.55 2.84 2.81 1.75
3.58 2.88 2.50 2.40 2.28 1.79 1.70 1.67 1.87 2.20 2.31 3.01 3.54 4.47 3.17 2.74 5.24 8.20 8.83 5.01 2.17 0.64 0.34 0.46 0.39 0.55 0.37 0.34 0.59 0.84 1.23 1.41 1.04 0.43 0.74 1.30 1.79 0.95 0.53 0.66 0.65 0.79 1.39 2.68 3.23 2.35 1.99
3.45 3.58 3.10 2.71 2.79 2.38 1.85 1.95 2.13 2.37 2.95 4.14 4.78 4.89 3.21 3.50 6.51 7.46 5.66 2.90 1.40 0.58 0.59 0.89 0.70 0.45 0.52 0.47 0.56 0.99 1.39 1.40 0.97 0.72 0.78 1.16 1.77 1.36 0.57 0.28 0.37 0.90 1.70 2.84 4.98 4.20 3.28
3.36 3.41 3.68 3.35 3.27 3.46 2.75 2.39 2.60 2.88 3.39 4.33 5.85 4.25 4.20 4.81 5.88 4.41 2.92 2.19 1.41 0.70 0.63 1.30 1.11 0.72 0.63 0.62 1.18 0.78 0.91 0.98 1.03 1.00 1.08 1.15 1.86 1.90 1.22 0.99 0.75 1.39 1.68 2.07 3.00 3.76 3.69
2.96 3.19 3.04 3.58 3.44 4.01 3.76 3.18 2.90 3.11 4.16 5.09 6.76 6.00 6.32 6.42 4.12 2.61 2.04 1.68 1.35 0.72 0.51 0.77 1.09 0.63 0.89 1.19 1.15 1.15 0.63 0.77 0.99 0.88 0.76 1.66 1.28 1.73 1.46 1.16 1.20 1.22 1.03 1.52 2.53 3.06 2.23
2.26 2.67 3.14 3.15 3.74 4.11 4.44 4.22 3.99 4.12 4.91 8.02 8.88 4.82 3.12 4.01 2.89 2.07 1.87 1.89 1.09 1.03 1.03 0.79 1.14 0.85 0.96 1.50 1.31 0.98 0.67 1.00 1.20 0.97 0.87 1.87 1.69 1.30 0.95 0.48 0.65 0.90 0.83 0.82 1.52 1.34 1.82
2.00 2.04 2.62 3.31 3.79 3.69 4.22 4.63 4.59 4.86 6.54 10.49 8.91 3.28 1.78 1.13 1.04 1.73 1.69 1.69 0.95 0.85 1.48 1.33 1.32 0.88 0.95 1.30 1.22 1.07 1.07 1.00 1.23 0.88 1.23 2.03 2.27 1.56 1.70 0.77 0.90 1.06 0.94 0.64 0.89 1.01 1.28
1.84 1.80 2.20 2.82 3.19 3.30 3.89 4.53 4.66 4.88 7.81 12.76 7.15 2.10 2.49 1.75 0.95 1.43 1.69 1.38 1.07 1.30 1.19 0.77 1.03 1.16 1.18 1.19 0.94 0.62 0.75 0.90 0.90 0.96 1.29 2.09 2.95 2.66 2.82 1.31 1.14 1.87 1.25 0.94 0.84 0.73 0.72
2.03 1.92 1.95 2.39 2.56 3.11 3.72 4.07 4.66 5.34 6.49 7.23 4.52 2.48 3.33 2.84 1.32 1.15 0.67 0.66 0.81 0.92 1.97 0.97 0.91 1.32 1.06 0.75 0.88 1.06 1.14 1.14 1.18 1.36 1.59 2.09 2.17 3.09 3.10 2.16 2.94 2.19 0.69 0.67 0.86 0.65 0.37
2.30 2.17 2.22 2.43 2.67 2.90 3.46 3.67 4.32 5.27 5.87 5.62 4.21 3.14 3.88 3.04 1.23 0.96 0.66 0.68 0.64 0.90 1.19 1.40 1.16 1.04 0.77 0.87 1.88 2.55 2.49 2.30 1.64 1.46 1.78 1.89 2.01 3.17 3.43 2.51 2.08 0.68 0.54 0.67 1.04 0.92 0.48
2.40 2.29 2.31 2.41 2.64 2.85 3.26 3.50 3.48 4.43 5.69 5.93 5.01 3.78 4.52 4.57 1.58 0.71 0.73 0.54 0.82 1.26 1.40 1.13 1.23 1.29 1.41 1.90 2.91 3.13 2.27 1.96 1.64 1.24 0.91 1.33 2.05 3.26 3.28 2.77 2.02 1.09 0.53 0.43 0.72 1.57 1.06
2.20 2.19 2.00 2.14 2.39 2.53 2.90 3.23 3.13 3.70 4.92 6.33 5.96 3.70 5.65 5.58 1.36 0.79 1.23 1.11 0.82 1.09 1.43 1.16 1.27 1.55 1.60 2.95 3.79 2.86 1.91 1.07 1.48 1.60 1.50 1.87 2.98 3.38 2.68 2.52 1.35 1.06 0.60 0.31 1.60 1.87 1.29
2.16 2.25 1.96 2.01 2.12 2.18 2.52 2.82 3.00 3.19 4.33 5.73 6.33 3.28 5.36 6.05 2.10 0.94 0.97 0.89 0.71 0.95 1.72 1.65 2.19 2.17 2.65 2.79 2.75 2.60 2.36 1.92 1.77 1.57 1.84 2.03 2.75 2.79 2.60 2.88 1.88 1.21 1.04 1.61 2.10 1.64 1.44
2.15 2.35 2.05 2.02 1.98 2.06 2.18 2.47 2.92 3.28 4.11 5.32 5.94 3.58 4.35 6.83 3.78 1.05 1.04 0.71 0.49 0.66 1.29 1.62 2.07 2.02 2.54 3.11 2.44 2.14 2.02 1.95 1.62 2.11 1.07 2.19 2.06 2.36 2.62 2.80 2.02 1.55 1.89 2.07 1.81 1.60 1.31

GFSGBSN_prec_precacc_342.txt.gz
Total_Precipitation_Accumulation
1.34 1.36 1.26 1.08 0.81 0.54 0.43 0.37 0.30 0.22 0.20 0.15 0.13 0.11 0.09 0.09 0.09 0.07 0.05 0.03 0.04 0.04 0.04 0.05 0.06 0.08 0.05 0.02 0.00 0.00 0.00 0.00 0.00 0.00 0.00 0.00 0.00 0.00 0.00 0.00 0.00 0.00 0.00 0.00 0.01 0.01 0.01
1.12 1.10 1.36 1.61 1.74 1.67 1.47 1.23 0.96 0.77 0.66 0.52 0.39 0.29 0.23 0.16 0.12 0.10 0.09 0.06 0.05 0.05 0.05 0.07 0.10 0.14 0.09 0.03 0.00 0.00 0.00 0.00 0.00 0.00 0.00 0.00 0.00 0.00 0.00 0.00 0.00 0.00 0.00 0.00 0.02 0.00 0.00
1.46 1.38 1.17 1.08 1.22 1.43 1.60 1.61 1.54 1.36 1.20 1.09 1.00 0.89 0.71 0.56 0.37 0.23 0.16 0.10 0.08 0.12 0.14 0.16 0.20 0.16 0.10 0.01 0.00 0.00 0.00 0.00 0.00 0.00 0.00 0.00 0.00 0.00 0.00 0.00 0.00 0.00 0.00 0.00 0.00 0.01 0.01
1.56 1.56 1.62 1.57 1.30 1.18 1.21 1.37 1.36 1.37 1.40 1.29 1.26 1.13 0.95 0.75 0.63 0.48 0.30 0.20 0.17 0.13 0.17 0.30 0.39 0.26 0.13 0.00 0.00 0.00 0.00 0.00 0.00 0.00 0.00 0.00 0.00 0.00 0.00 0.00 0.00 0.00 0.00 0.00 0.00 0.01 0.02
1.30 1.33 1.46 1.56 1.57 1.51 1.48 1.47 1.52 1.46 1.32 1.31 1.34 1.38 1.21 1.02 0.76 0.53 0.43 0.33 0.24 0.26 0.33 0.35 0.45 0.36 0.09 0.00 0.00 0.00 0.00 0.02 0.00 0.00 0.00 0.00 0.00 0.00 0.00 0.00 0.01 0.00 0.00 0.00 0.00 0.00 0.01
1.46 1.30 1.22 1.17 1.20 1.22 1.24 1.31 1.41 1.47 1.49 1.36 1.38 1.41 1.44 1.35 1.21 1.01 0.79 0.60 0.48 0.52 0.60 0.68 0.58 0.29 0.04 0.00 0.00 0.00 0.00 0.02 0.01 0.00 0.00 0.00 0.00 0.01 0.00 0.01 0.01 0.00 0.00 0.00 0.02 0.07 0.00
2.08 1.92 1.69 1.54 1.38 1.17 1.08 1.12 1.16 1.19 1.28 1.30 1.21 1.23 1.26 1.31 1.37 1.45 1.28 1.22 1.09 0.94 0.72 0.36 0.21 0.08 0.00 0.00 0.00 0.00 0.00 0.00 0.00 0.00 0.02 0.00 0.02 0.01 0.00 0.00 0.00 0.01 0.01 0.00 0.00 0.00 0.00
2.10 2.00 1.94 1.89 1.78 1.70 1.56 1.42 1.19 1.09 1.04 1.19 1.41 1.41 1.21 1.19 1.36 1.58 1.46 1.31 0.92 0.70 0.59 0.09 0.02 0.01 0.01 0.00 0.00 0.00 0.01 0.04 0.03 0.03 0.03 0.04 0.03 0.00 0.00 0.00 0.00 0.02 0.03 0.01 0.01 0.01 0.02
1.94 1.99 1.88 1.81 1.79 1.71 1.64 1.60 1.48 1.15 0.92 0.98 1.21 1.57 1.73 1.61 1.75 1.94 1.81 1.30 0.65 0.61 0.97 0.27 0.07 0.03 0.02 0.01 0.03 0.03 0.00 0.02 0.07 0.06 0.06 0.05 0.02 0.00 0.02 0.01 0.01 0.01 0.05 0.03 0.03 0.02 0.00
1.86 1.79 1.77 1.82 1.90 1.88 1.80 1.71 1.42 1.16 1.11 1.18 1.26 1.61 1.96 2.50 3.20 2.16 1.95 0.99 0.84 1.37 1.58 0.60 0.10 0.05 0.03 0.03 0.06 0.00 0.00 0.01 0.08 0.08 0.15 0.20 0.03 0.03 0.03 0.01 0.07 0.06 0.00 0.02 0.02 0.12 0.08
1.88 1.88 1.82 1.75 1.74 1.72 1.70 1.74 1.73 1.54 1.32 1.27 1.37 1.72 2.13 2.58 2.22 2.15 1.42 0.70 1.53 2.32 3.65 0.80 0.06 0.01 0.05 0.03 0.02 0.02 0.00 0.02 0.06 0.15 0.47 0.26 0.03 0.06 0.07 0.04 0.07 0.05 0.00 0.02 0.04 0.12 0.27
1.85 1.83 1.93 1.95 1.76 1.59 1.58 1.64 1.61 1.58 1.59 1.55 1.50 1.69 2.36 2.57 2.31 1.26 0.71 1.40 3.20 5.51 4.81 0.67 0.03 0.01 0.02 0.01 0.01 0.01 0.05 0.04 0.04 0.21 0.26 0.07 0.02 0.13 0.20 0.01 0.03 0.05 0.07 0.10 0.15 0.32 0.79
2.39 1.94 1.83 1.87 1.90 1.95 1.73 1.57 1.48 1.62 1.72 1.75 1.85 1.95 2.28 1.93 2.31 1.48 1.74 3.41 6.17 6.50 2.50 0.40 0.04 0.02 0.01 0.01 0.00 0.03 0.12 0.13 0.31 0.56 0.39 0.14 0.12 0.07 0.15 0.19 0.08 0.14 0.35 0.80 0.84 0.80 0.62
2.35 2.31 2.17 1.97 1.84 1.84 1.85 1.78 1.61 1.56 1.68 1.94 2.24 2.54 2.50 2.10 1.71 2.18 3.82 5.97 7.19 3.64 1.18 0.18 0.05 0.07 0.10 0.07 0.04 0.03 0.18 0.36 0.47 0.27 0.44 0.60 0.58 0.19 0.28 0.39 0.25 0.15 0.50 0.90 0.84 0.35 0.16
2.37 2.30 2.19 1.99 1.73 1.64 1.72 1.87 1.89 1.96 2.04 2.23 2.94 3.31 3.44 2.92 2.73 3.50 5.91 9.10 5.72 1.84 0.35 0.08 0.10 0.24 0.32 0.28 0.18 0.19 0.49 0.83 0.76 0.44 0.99 1.01 0.73 0.32 0.24 0.21 0.32 0.66 0.79 0.32 1.15 0.84 1.02
2.92 2.47 2.30 2.15 1.93 1.76 1.73 1.68 2.01 2.21 2.38 2.65 2.82 3.36 3.29 2.86 3.57 5.21 7.72 7.07 3.26 0.81 0.14 0.11 0.38 0.31 0.37 0.32 0.44 0.52 0.85 1.32 0.70 0.54 1.04 1.46 1.55 0.31 0.25 0.38 0.33 0.63 0.62 1.57 2.86 2.81 1.75
3.58 2.88 2.50 2.40 2.28 1.79 1.70 1.67 1.87 2.20 2.31 3.01 3.54 4.47 3.17 2.74 5.24 8.20 8.83 5.01 2.17 0.64 0.34 0.46 0.39 0.55 0.37 0.34 0.59 0.84 1.23 1.41 1.04 0.43 0.75 1.30 1.80 0.95 0.53 0.67 0.67 0.80 1.41 2.72 3.23 2.35 1.99
3.45 3.58 3.10 2.71 2.79 2.38 1.85 1.95 2.13 2.37 2.95 4.14 4.78 4.89 3.21 3.50 6.51 7.46 5.66 2.90 1.40 0.58 0.59 0.89 0.70 0.46 0.55 0.48 0.56 1.00 1.39 1.40 0.97 0.72 0.78 1.16 1.77 1.36 0.57 0.28 0.37 0.91 1.72 2.85 4.98 4.20 3.28
3.36 3.41 3.68 3.35 3.27 3.46 2.75 2.39 2.60 2.88 3.39 4.33 5.85 4.25 4.20 4.81 5.88 4.41 2.92 2.19 1.41 0.70 0.63 1.31 1.12 0.75 0.68 0.63 1.20 0.79 0.91 0.98 1.03 1.00 1.08 1.15 1.87 1.92 1.25 1.08 0.81 1.40 1.69 2.08 3.00 3.76 3.70
2.96 3.19 3.04 3.58 3.44 4.01 3.76 3.18 2.90 3.11 4.16 5.09 6.76 6.00 6.32 6.42 4.12 2.61 2.04 1.68 1.35 0.72 0.51 0.77 1.09 0.69 0.94 1.19 1.16 1.15 0.63 0.77 0.99 0.88 0.76 1.66 1.31 1.80 1.59 1.46 1.41 1.30 1.12 1.56 2.55 3.07 2.24
2.26 2.67 3.14 3.15 3.74 4.11 4.44 4.22 3.99 4.12 4.91 8.02 8.88 4.82 3.12 4.01 2.89 2.07 1.87 1.89 1.09 1.03 1.03 0.79 1.15 0.87 0.97 1.51 1.32 0.98 0.67 1.00 1.20 0.97 0.87 1.88 1.76 1.39 1.04 0.73 0.67 0.97 0.93 0.86 1.53 1.35 1.93
2.00 2.04 2.62 3.31 3.79 3.69 4.22 4.63 4.59 4.86 6.54 10.49 8.91 3.28 1.78 1.13 1.04 1.73 1.69 1.69 0.95 0.85 1.49 1.35 1.33 0.89 0.96 1.32 1.24 1.10 1.12 1.04 1.26 0.88 1.23 2.05 2.34 1.69 1.83 0.84 0.91 1.07 0.96 0.67 0.92 1.07 1.41
1.84 1.80 2.20 2.82 3.19 3.30 3.89 4.53 4.66 4.88 7.81 12.76 7.15 2.10 2.49 1.75 0.95 1.43 1.69 1.38 1.07 1.30 1.19 0.77 1.03 1.16 1.18 1.19 0.94 0.62 0.76 0.96 1.01 1.05 1.31 2.13 3.05 2.77 3.01 1.37 1.15 1.89 1.37 1.04 0.96 0.87 0.86
2.03 1.92 1.95 2.39 2.56 3.11 3.72 4.07 4.66 5.34 6.49 7.23 4.52 2.48 3.33 2.84 1.32 1.15 0.67 0.66 0.81 0.92 1.97 0.97 0.91 1.32 1.06 0.75 0.88 1.06 1.14 1.16 1.25 1.43 1.63 2.14 2.23 3.14 3.17 2.17 2.96 2.27 0.81 0.77 1.08 0.95 0.72
2.30 2.17 2.22 2.43 2.67 2.90 3.46 3.67 4.32 5.27 5.87 5.62 4.21 3.14 3.88 3.04 1.23 0.96 0.66 0.68 0.64 0.90 1.19 1.40 1.16 1.04 0.77 0.87 1.88 2.55 2.49 2.30 1.64 1.46 1.79 1.91 2.02 3.18 3.44 2.53 2.12 0.71 0.62 0.88 1.22 1.13 0.69
2.40 2.29 2.31 2.41 2.64 2.85 3.26 3.50 3.48 4.43 5.69 5.93 5.01 3.78 4.52 4.57 1.58 0.71 0.73 0.54 0.82 1.26 1.40 1.13 1.23 1.29 1.41 1.90 2.91 3.14 2.28 1.97 1.64 1.25 0.91 1.34 2.06 3.26 3.28 2.78 2.06 1.18 0.60 0.46 0.79 1.61 1.11
2.20 2.19 2.00 2.14 2.39 2.53 2.90 3.23 3.13 3.70 4.92 6.33 5.96 3.70 5.65 5.58 1.36 0.79 1.23 1.11 0.82 1.09 1.43 1.16 1.27 1.55 1.60 2.95 3.79 2.86 1.92 1.08 1.50 1.64 1.52 1.87 2.98 3.38 2.68 2.53 1.42 1.14 0.62 0.31 1.63 1.94 1.39
2.16 2.25 1.96 2.01 2.12 2.18 2.52 2.82 3.00 3.19 4.33 5.73 6.33 3.28 5.36 6.05 2.10 0.94 0.97 0.89 0.71 0.95 1.72 1.65 2.19 2.17 2.65 2.79 2.75 2.60 2.36 1.94 1.79 1.59 1.85 2.03 2.75 2.80 2.60 2.89 1.93 1.25 1.09 1.72 2.24 1.75 1.53
2.15 2.35 2.05 2.02 1.98 2.06 2.18 2.47 2.92 3.28 4.11 5.32 5.94 3.58 4.35 6.83 3.78 1.05 1.04 0.71 0.49 0.66 1.29 1.62 2.07 2.02 2.54 3.12 2.44 2.14 2.02 1.95 1.62 2.13 1.07 2.24 2.08 2.38 2.67 2.91 2.16 1.65 2.03 2.17 1.87 1.66 1.37

GFSGBSN_prec_precacc_345.txt.gz
Total_Precipitation_Accumulation
1.34 1.36 1.26 1.08 0.81 0.54 0.43 0.37 0.30 0.22 0.20 0.15 0.13 0.11 0.09 0.09 0.09 0.07 0.05 0.03 0.04 0.04 0.04 0.05 0.06 0.08 0.05 0.02 0.00 0.00 0.00 0.00 0.00 0.00 0.00 0.00 0.00 0.00 0.00 0.00 0.00 0.00 0.00 0.00 0.01 0.01 0.01
1.12 1.10 1.36 1.61 1.74 1.67 1.47 1.23 0.96 0.77 0.66 0.52 0.39 0.29 0.23 0.16 0.12 0.10 0.09 0.06 0.05 0.05 0.05 0.07 0.10 0.14 0.09 0.03 0.00 0.00 0.00 0.00 0.00 0.00 0.00 0.00 0.00 0.00 0.00 0.00 0.00 0.00 0.00 0.00 0.02 0.00 0.00
1.46 1.38 1.17 1.08 1.22 1.43 1.60 1.61 1.54 1.36 1.20 1.09 1.00 0.89 0.71 0.56 0.37 0.23 0.16 0.10 0.08 0.12 0.14 0.16 0.20 0.16 0.10 0.01 0.00 0.00 0.00 0.00 0.00 0.00 0.00 0.00 0.00 0.00 0.00 0.00 0.00 0.00 0.00 0.00 0.00 0.01 0.01
1.56 1.56 1.62 1.57 1.30 1.18 1.21 1.37 1.36 1.37 1.40 1.29 1.26 1.13 0.95 0.75 0.63 0.48 0.30 0.20 0.17 0.13 0.17 0.30 0.39 0.26 0.13 0.00 0.00 0.00 0.00 0.00 0.00 0.00 0.00 0.00 0.00 0.00 0.00 0.00 0.00 0.00 0.00 0.00 0.00 0.01 0.02
1.30 1.33 1.46 1.56 1.57 1.51 1.48 1.47 1.52 1.46 1.32 1.31 1.34 1.38 1.21 1.02 0.76 0.53 0.43 0.33 0.24 0.26 0.33 0.35 0.45 0.36 0.09 0.00 0.00 0.00 0.00 0.02 0.00 0.00 0.00 0.00 0.00 0.00 0.00 0.00 0.01 0.00 0.00 0.00 0.00 0.00 0.01
1.46 1.30 1.22 1.17 1.20 1.22 1.24 1.31 1.41 1.47 1.49 1.36 1.38 1.41 1.44 1.35 1.21 1.01 0.79 0.60 0.48 0.52 0.60 0.68 0.58 0.29 0.04 0.00 0.00 0.00 0.00 0.02 0.01 0.00 0.00 0.00 0.00 0.01 0.00 0.01 0.01 0.00 0.00 0.00 0.02 0.07 0.00
2.08 1.92 1.69 1.54 1.38 1.17 1.08 1.12 1.16 1.19 1.28 1.30 1.21 1.23 1.26 1.31 1.37 1.45 1.28 1.22 1.09 0.94 0.72 0.36 0.21 0.08 0.00 0.00 0.00 0.00 0.00 0.00 0.00 0.00 0.02 0.00 0.02 0.01 0.00 0.00 0.00 0.01 0.01 0.00 0.00 0.00 0.00
2.10 2.00 1.94 1.89 1.78 1.70 1.56 1.42 1.19 1.09 1.04 1.19 1.41 1.41 1.21 1.19 1.36 1.58 1.46 1.31 0.92 0.70 0.59 0.09 0.02 0.01 0.01 0.00 0.00 0.00 0.01 0.04 0.03 0.03 0.03 0.04 0.03 0.00 0.00 0.00 0.00 0.02 0.03 0.01 0.01 0.01 0.02
1.94 1.99 1.88 1.81 1.79 1.71 1.64 1.60 1.48 1.15 0.92 0.98 1.21 1.57 1.73 1.61 1.75 1.94 1.81 1.30 0.65 0.61 0.97 0.27 0.07 0.03 0.02 0.01 0.03 0.03 0.00 0.02 0.07 0.06 0.06 0.05 0.02 0.00 0.02 0.01 0.01 0.01 0.05 0.03 0.03 0.02 0.00
1.86 1.79 1.77 1.82 1.90 1.88 1.80 1.71 1.42 1.16 1.11 1.18 1.26 1.61 1.96 2.50 3.20 2.16 1.95 0.99 0.84 1.37 1.58 0.60 0.10 0.05 0.03 0.03 0.06 0.00 0.00 0.01 0.08 0.08 0.15 0.20 0.03 0.03 0.03 0.01 0.07 0.06 0.00 0.02 0.02 0.12 0.08
1.88 1.88 1.82 1.75 1.74 1.72 1.70 1.74 1.73 1.54 1.32 1.27 1.37 1.72 2.13 2.58 2.22 2.15 1.42 0.70 1.53 2.32 3.65 0.80 0.06 0.01 0.05 0.03 0.02 0.02 0.00 0.02 0.06 0.15 0.47 0.26 0.03 0.06 0.07 0.04 0.07 0.05 0.00 0.02 0.04 0.12 0.27
1.85 1.83 1.93 1.95 1.76 1.59 1.58 1.64 1.61 1.58 1.59 1.55 1.50 1.69 2.36 2.57 2.31 1.26 0.71 1.40 3.20 5.51 4.81 0.67 0.03 0.01 0.02 0.01 0.01 0.01 0.05 0.04 0.04 0.21 0.26 0.07 0.02 0.13 0.20 0.01 0.03 0.05 0.07 0.10 0.15 0.32 0.79
2.39 1.94 1.83 1.87 1.90 1.95 1.73 1.57 1.48 1.62 1.72 1.75 1.85 1.95 2.28 1.93 2.31 1.48 1.74 3.41 6.17 6.50 2.50 0.40 0.04 0.02 0.01 0.01 0.00 0.03 0.12 0.13 0.31 0.57 0.39 0.14 0.12 0.07 0.15 0.19 0.08 0.15 0.38 0.85 0.85 0.80 0.63
2.35 2.31 2.17 1.97 1.84 1.84 1.85 1.78 1.61 1.56 1.68 1.94 2.24 2.54 2.50 2.10 1.71 2.18 3.82 5.97 7.19 3.64 1.18 0.18 0.05 0.07 0.10 0.07 0.04 0.03 0.18 0.36 0.48 0.27 0.44 0.61 0.59 0.22 0.29 0.39 0.25 0.16 0.52 0.94 0.91 0.36 0.16
2.37 2.30 2.19 1.99 1.73 1.64 1.72 1.87 1.89 1.96 2.04 2.23 2.94 3.31 3.44 2.92 2.73 3.50 5.91 9.10 5.72 1.84 0.35 0.08 0.10 0.24 0.32 0.28 0.18 0.19 0.49 0.83 0.76 0.44 0.99 1.02 0.75 0.35 0.32 0.28 0.34 0.72 0.83 0.34 1.21 0.89 1.02
2.92 2.47 2.30 2.15 1.93 1.76 1.73 1.68 2.01 2.21 2.38 2.65 2.82 3.36 3.29 2.86 3.57 5.21 7.72 7.07 3.26 0.81 0.14 0.11 0.38 0.31 0.37 0.33 0.44 0.52 0.85 1.32 0.70 0.54 1.04 1.47 1.57 0.36 0.31 0.46 0.40 0.70 0.67 1.61 2.97 2.90 1.77
3.58 2.88 2.50 2.40 2.28 1.79 1.70 1.67 1.87 2.20 2.31 3.01 3.54 4.47 3.17 2.74 5.24 8.20 8.83 5.01 2.17 0.64 0.34 0.46 0.39 0.55 0.38 0.35 0.59 0.84 1.23 1.41 1.04 0.43 0.75 1.30 1.81 0.96 0.53 0.70 0.74 0.87 1.54 2.74 3.25 2.38 2.00
3.45 3.58 3.10 2.71 2.79 2.38 1.85 1.95 2.13 2.37 2.95 4.14 4.78 4.89 3.21 3.50 6.51 7.46 5.66 2.90 1.40 0.58 0.59 0.89 0.70 0.46 0.57 0.48 0.56 1.00 1.39 1.40 0.97 0.72 0.78 1.16 1.79 1.37 0.57 0.29 0.38 0.94 1.77 2.88 5.01 4.21 3.29
3.36 3.41 3.68 3.35 3.27 3.46 2.75 2.39 2.60 2.88 3.39 4.33 5.85 4.25 4.20 4.81 5.88 4.41 2.92 2.19 1.41 0.70 0.63 1.31 1.12 0.76 0.69 0.63 1.20 0.79 0.91 0.98 1.03 1.00 1.08 1.17 1.89 1.93 1.27 1.13 0.85 1.46 1.72 2.09 3.01 3.77 3.71
2.96 3.19 3.04 3.58 3.44 4.01 3.76 3.18 2.90 3.11 4.16 5.09 6.76 6.00 6.32 6.42 4.12 2.61 2.04 1.68 1.35 0.72 0.51 0.77 1.10 0.69 0.94 1.19 1.16 1.15 0.63 0.77 0.99 0.88 0.78 1.70 1.39 1.88 1.70 1.62 1.50 1.34 1.12 1.57 2.57 3.08 2.26
2.26 2.67 3.14 3.15 3.74 4.11 4.44 4.22 3.99 4.12 4.91 8.02 8.88 4.82 3.12 4.01 2.89 2.07 1.87 1.89 1.09 1.03 1.03 0.79 1.15 0.88 0.99 1.52 1.33 0.99 0.71 1.02 1.22 1.00 0.95 2.00 1.89 1.49 1.26 0.83 0.68 1.00 0.98 0.87 1.54 1.36 1.95
2.00 2.04 2.62 3.31 3.79 3.69 4.22 4.63 4.59 4.86 6.54 10.49 8.91 3.28 1.78 1.13 1.04 1.73 1.69 1.69 0.95 0.85 1.49 1.35 1.33 0.89 0.96 1.34 1.26 1.15 1.20 1.11 1.35 0.94 1.27 2.10 2.47 1.86 2.03 0.94 0.93 1.10 1.03 0.68 0.93 1.09 1.44
1.84 1.80 2.20 2.82 3.19 3.30 3.89 4.53 4.66 4.88 7.81 12.76 7.15 2.10 2.49 1.75 0.95 1.43 1.69 1.38 1.07 1.30 1.19 0.77 1.03 1.16 1.18 1.19 0.94 0.62 0.77 1.01 1.10 1.10 1.34 2.16 3.08 2.83 3.12 1.40 1.16 1.93 1.49 1.10 1.02 0.94 0.96
2.03 1.92 1.95 2.39 2.56 3.11 3.72 4.07 4.66 5.34 6.49 7.23 4.52 2.48 3.33 2.84 1.32 1.15 0.67 0.66 0.81 0.92 1.97 0.97 0.91 1.32 1.06 0.75 0.88 1.06 1.14 1.16 1.25 1.43 1.64 2.16 2.26 3.18 3.21 2.17 2.99 2.40 0.94 0.83 1.21 1.10 0.89
2.30 2.17 2.22 2.43 2.67 2.90 3.46 3.67 4.32 5.27 5.87 5.62 4.21 3.14 3.88 3.04 1.23 0.96 0.66 0.68 0.64 0.90 1.19 1.40 1.16 1.04 0.77 0.87 1.88 2.55 2.49 2.30 1.64 1.46 1.79 1.92 2.03 3.18 3.44 2.53 2.15 0.76 0.74 1.03 1.36 1.26 0.87
2.40 2.29 2.31 2.41 2.64 2.85 3.26 3.50 3.48 4.43 5.69 5.93 5.01 3.78 4.52 4.57 1.58 0.71 0.73 0.54 0.82 1.26 1.40 1.13 1.23 1.29 1.41 1.90 2.91 3.14 2.29 1.97 1.64 1.25 0.92 1.34 2.06 3.26 3.28 2.79 2.11 1.31 0.72 0.52 0.86 1.65 1.22
2.20 2.19 2.00 2.14 2.39 2.53 2.90 3.23 3.13 3.70 4.92 6.33 5.96 3.70 5.65 5.58 1.36 0.79 1.23 1.11 0.82 1.09 1.43 1.16 1.27 1.55 1.60 2.95 3.79 2.86 1.93 1.09 1.51 1.67 1.53 1.87 2.98 3.38 2.68 2.54 1.51 1.24 0.63 0.31 1.68 2.05 1.52
2.16 2.25 1.96 2.01 2.12 2.18 2.52 2.82 3.00 3.19 4.33 5.73 6.33 3.28 5.36 6.05 2.10 0.94 0.97 0.89 0.71 0.95 1.72 1.65 2.19 2.17 2.65 2.79 2.75 2.60 2.37 1.96 1.80 1.62 1.86 2.03 2.75 2.80 2.60 2.90 2.00 1.29 1.13 1.82 2.39 1.83 1.59
2.15 2.35 2.05 2.02 1.98 2.06 2.18 2.47 2.92 3.28 4.11 5.32 5.94 3.58 4.35 6.83 3.78 1.05 1.04 0.71 0.49 0.66 1.29 1.62 2.07 2.02 2.54 3.12 2.44 2.14 2.03 1.96 1.63 2.15 1.08 2.27 2.11 2.41 2.73 3.04 2.30 1.71 2.11 2.22 1.89 1.67 1.37

GFSGBSN_prec_precacc_348.txt.gz
Total_Precipitation_Accumulation
1.34 1.36 1.26 1.08 0.81 0.54 0.43 0.37 0.30 0.22 0.20 0.15 0.13 0.11 0.09 0.09 0.09 0.07 0.05 0.03 0.04 0.04 0.04 0.05 0.06 0.08 0.05 0.02 0.00 0.00 0.00 0.00 0.00 0.00 0.00 0.00 0.00 0.00 0.00 0.00 0.00 0.00 0.00 0.00 0.01 0.01 0.01
1.12 1.10 1.36 1.61 1.74 1.67 1.47 1.23 0.96 0.77 0.66 0.52 0.39 0.29 0.23 0.16 0.12 0.10 0.09 0.06 0.05 0.05 0.05 0.07 0.10 0.14 0.09 0.03 0.00 0.00 0.00 0.00 0.00 0.00 0.00 0.00 0.00 0.00 0.00 0.00 0.00 0.00 0.00 0.00 0.02 0.00 0.00
1.46 1.38 1.17 1.08 1.22 1.43 1.60 1.61 1.54 1.36 1.20 1.09 1.00 0.89 0.71 0.56 0.37 0.23 0.16 0.10 0.08 0.12 0.14 0.16 0.20 0.16 0.10 0.01 0.00 0.00 0.00 0.00 0.00 0.00 0.00 0.00 0.00 0.00 0.00 0.00 0.00 0.00 0.00 0.00 0.00 0.01 0.01
1.56 1.56 1.62 1.57 1.30 1.18 1.21 1.37 1.36 1.37 1.40 1.29 1.26 1.13 0.95 0.75 0.63 0.48 0.30 0.20 0.17 0.13 0.17 0.30 0.39 0.26 0.13 0.00 0.00 0.00 0.00 0.00 0.00 0.00 0.00 0.00 0.00 0.00 0.00 0.00 0.00 0.00 0.00 0.00 0.00 0.01 0.02
1.30 1.33 1.46 1.56 1.57 1.51 1.48 1.47 1.52 1.46 1.32 1.31 1.34 1.38 1.21 1.02 0.76 0.53 0.43 0.33 0.24 0.26 0.33 0.35 0.45 0.36 0.09 0.00 0.00 0.00 0.00 0.02 0.00 0.00 0.00 0.00 0.00 0.00 0.00 0.00 0.01 0.00 0.00 0.00 0.00 0.00 0.01
1.46 1.30 1.22 1.17 1.20 1.22 1.24 1.31 1.41 1.47 1.49 1.36 1.38 1.41 1.44 1.35 1.21 1.01 0.79 0.60 0.48 0.52 0.60 0.68 0.58 0.29 0.04 0.00 0.00 0.00 0.00 0.02 0.01 0.00 0.00 0.00 0.00 0.01 0.00 0.01 0.01 0.00 0.00 0.00 0.02 0.07 0.00
2.08 1.92 1.69 1.54 1.38 1.17 1.08 1.12 1.16 1.19 1.28 1.30 1.21 1.23 1.26 1.31 1.37 1.45 1.28 1.22 1.09 0.94 0.72 0.36 0.21 0.08 0.00 0.00 0.00 0.00 0.00 0.00 0.00 0.00 0.02 0.00 0.02 0.01 0.00 0.00 0.00 0.01 0.01 0.00 0.00 0.00 0.00
2.10 2.00 1.94 1.89 1.78 1.70 1.56 1.42 1.19 1.09 1.04 1.19 1.41 1.41 1.21 1.19 1.36 1.58 1.46 1.31 0.92 0.70 0.59 0.09 0.02 0.01 0.01 0.00 0.00 0.00 0.01 0.04 0.03 0.03 0.03 0.04 0.03 0.00 0.00 0.00 0.00 0.02 0.03 0.01 0.01 0.01 0.02
1.94 1.99 1.88 1.81 1.79 1.71 1.64 1.60 1.48 1.15 0.92 0.98 1.21 1.57 1.73 1.61 1.75 1.94 1.81 1.30 0.65 0.61 0.97 0.27 0.07 0.03 0.02 0.01 0.03 0.03 0.00 0.02 0.07 0.06 0.06 0.05 0.02 0.00 0.02 0.01 0.01 0.01 0.05 0.03 0.03 0.02 0.00
1.86 1.79 1.77 1.82 1.90 1.88 1.80 1.71 1.42 1.16 1.11 1.18 1.26 1.61 1.96 2.50 3.20 2.16 1.95 0.99 0.84 1.37 1.58 0.60 0.10 0.05 0.03 0.03 0.06 0.00 0.00 0.01 0.08 0.08 0.15 0.20 0.03 0.03 0.03 0.01 0.07 0.06 0.00 0.02 0.02 0.12 0.08
1.88 1.88 1.82 1.75 1.74 1.72 1.70 1.74 1.73 1.54 1.32 1.27 1.37 1.72 2.13 2.58 2.22 2.15 1.42 0.70 1.53 2.32 3.65 0.80 0.06 0.01 0.05 0.03 0.02 0.02 0.00 0.02 0.06 0.15 0.47 0.26 0.03 0.06 0.07 0.04 0.07 0.05 0.00 0.02 0.04 0.12 0.27
1.85 1.83 1.93 1.95 1.76 1.59 1.58 1.64 1.61 1.58 1.59 1.55 1.50 1.69 2.36 2.57 2.31 1.26 0.71 1.40 3.20 5.51 4.81 0.67 0.03 0.01 0.02 0.01 0.01 0.01 0.05 0.04 0.04 0.21 0.26 0.07 0.02 0.13 0.20 0.01 0.03 0.05 0.08 0.11 0.15 0.33 0.81
2.39 1.94 1.83 1.87 1.90 1.95 1.73 1.57 1.48 1.62 1.72 1.75 1.85 1.95 2.28 1.93 2.31 1.48 1.74 3.41 6.17 6.50 2.50 0.40 0.04 0.02 0.01 0.01 0.00 0.03 0.12 0.13 0.31 0.57 0.39 0.14 0.12 0.07 0.15 0.19 0.08 0.15 0.40 0.92 0.88 0.82 0.65
2.35 2.31 2.17 1.97 1.84 1.84 1.85 1.78 1.61 1.56 1.68 1.94 2.24 2.54 2.50 2.10 1.71 2.18 3.82 5.97 7.19 3.64 1.18 0.18 0.05 0.07 0.10 0.07 0.04 0.03 0.18 0.36 0.48 0.27 0.44 0.61 0.59 0.22 0.31 0.41 0.25 0.16 0.53 0.99 0.93 0.36 0.16
2.37 2.30 2.19 1.99 1.73 1.64 1.72 1.87 1.89 1.96 2.04 2.23 2.94 3.31 3.44 2.92 2.73 3.50 5.91 9.10 5.72 1.84 0.35 0.08 0.10 0.24 0.32 0.28 0.18 0.19 0.49 0.83 0.76 0.44 0.99 1.04 0.76 0.36 0.34 0.30 0.36 0.75 0.87 0.36 1.24 0.92 1.05
2.92 2.47 2.30 2.15 1.93 1.76 1.73 1.68 2.01 2.21 2.38 2.65 2.82 3.36 3.29 2.86 3.57 5.21 7.72 7.07 3.26 0.81 0.14 0.11 0.38 0.31 0.37 0.33 0.44 0.52 0.85 1.32 0.70 0.54 1.04 1.48 1.61 0.36 0.33 0.51 0.44 0.71 0.71 1.68 3.03 2.92 1.82
3.58 2.88 2.50 2.40 2.28 1.79 1.70 1.67 1.87 2.20 2.31 3.01 3.54 4.47 3.17 2.74 5.24 8.20 8.83 5.01 2.17 0.64 0.34 0.46 0.39 0.55 0.38 0.36 0.59 0.84 1.23 1.41 1.04 0.43 0.75 1.30 1.84 0.96 0.61 0.91 0.79 0.90 1.61 2.81 3.31 2.41 2.08
3.45 3.58 3.10 2.71 2.79 2.38 1.85 1.95 2.13 2.37 2.95 4.14 4.78 4.89 3.21 3.50 6.51 7.46 5.66 2.90 1.40 0.58 0.59 0.89 0.70 0.46 0.57 0.48 0.56 1.00 1.39 1.40 0.97 0.72 0.78 1.18 1.84 1.38 0.59 0.40 0.47 0.97 1.83 2.95 5.03 4.23 3.31
3.36 3.41 3.68 3.35 3.27 3.46 2.75 2.39 2.60 2.88 3.39 4.33 5.85 4.25 4.20 4.81 5.88 4.41 2.92 2.19 1.41 0.70 0.63 1.31 1.12 0.77 0.70 0.64 1.20 0.79 0.91 0.98 1.03 1.00 1.10 1.22 1.92 1.95 1.30 1.24 1.01 1.70 1.88 2.18 3.05 3.79 3.73
2.96 3.19 3.04 3.58 3.44 4.01 3.76 3.18 2.90 3.11 4.16 5.09 6.76 6.00 6.32 6.42 4.12 2.61 2.04 1.68 1.35 0.72 0.51 0.77 1.10 0.69 0.96 1.20 1.17 1.17 0.66 0.78 0.99 0.89 0.80 1.73 1.45 1.95 1.80 1.76 1.56 1.41 1.18 1.61 2.59 3.10 2.28
2.26 2.67 3.14 3.15 3.74 4.11 4.44 4.22 3.99 4.12 4.91 8.02 8.88 4.82 3.12 4.01 2.89 2.07 1.87 1.89 1.09 1.03 1.03 0.79 1.15 0.88 1.00 1.52 1.34 1.01 0.77 1.07 1.24 1.03 0.98 2.02 1.93 1.58 1.39 0.88 0.68 1.02 1.01 0.87 1.55 1.37 1.97
2.00 2.04 2.62 3.31 3.79 3.69 4.22 4.63 4.59 4.86 6.54 10.49 8.91 3.28 1.78 1.13 1.04 1.73 1.69 1.69 0.95 0.85 1.49 1.35 1.33 0.89 0.96 1.34 1.28 1.17 1.25 1.16 1.43 0.98 1.29 2.15 2.56 1.96 2.14 1.00 0.94 1.10 1.04 0.69 0.94 1.10 1.45
1.84 1.80 2.20 2.82 3.19 3.30 3.89 4.53 4.66 4.88 7.81 12.76 7.15 2.10 2.49 1.75 0.95 1.43 1.69 1.38 1.07 1.30 1.19 0.77 1.03 1.16 1.18 1.19 0.94 0.62 0.78 1.03 1.13 1.12 1.35 2.19 3.11 2.88 3.18 1.41 1.19 1.95 1.60 1.17 1.10 1.02 1.05
2.03 1.92 1.95 2.39 2.56 3.11 3.72 4.07 4.66 5.34 6.49 7.23 4.52 2.48 3.33 2.84 1.32 1.15 0.67 0.66 0.81 0.92 1.97 0.97 0.91 1.32 1.06 0.75 0.88 1.06 1.14 1.16 1.25 1.43 1.65 2.21 2.28 3.18 3.21 2.17 3.02 2.49 1.08 0.98 1.40 1.24 1.01
2.30 2.17 2.22 2.43 2.67 2.90 3.46 3.67 4.32 5.27 5.87 5.62 4.21 3.14 3.88 3.04 1.23 0.96 0.66 0.68 0.64 0.90 1.19 1.40 1.16 1.04 0.77 0.87 1.88 2.55 2.49 2.30 1.64 1.48 1.80 1.92 2.03 3.18 3.44 2.53 2.17 0.80 0.87 1.19 1.54 1.42 1.08
2.40 2.29 2.31 2.41 2.64 2.85 3.26 3.50 3.48 4.43 5.69 5.93 5.01 3.78 4.52 4.57 1.58 0.71 0.73 0.54 0.82 1.26 1.40 1.13 1.23 1.29 1.41 1.90 2.91 3.14 2.29 1.98 1.64 1.25 0.92 1.34 2.06 3.26 3.28 2.79 2.17 1.45 0.80 0.53 0.93 1.68 1.32
2.20 2.19 2.00 2.14 2.39 2.53 2.90 3.23 3.13 3.70 4.92 6.33 5.96 3.70 5.65 5.58 1.36 0.79 1.23 1.11 0.82 1.09 1.43 1.16 1.27 1.55 1.60 2.95 3.79 2.86 1.93 1.09 1.53 1.69 1.54 1.87 2.98 3.38 2.68 2.55 1.60 1.34 0.64 0.31 1.72 2.14 1.62
2.16 2.25 1.96 2.01 2.12 2.18 2.52 2.82 3.00 3.19 4.33 5.73 6.33 3.28 5.36 6.05 2.10 0.94 0.97 0.89 0.71 0.95 1.72 1.65 2.19 2.17 2.65 2.79 2.75 2.60 2.37 1.96 1.82 1.64 1.87 2.05 2.76 2.81 2.60 2.91 2.06 1.32 1.15 1.88 2.48 1.86 1.61
2.15 2.35 2.05 2.02 1.98 2.06 2.18 2.47 2.92 3.28 4.11 5.32 5.94 3.58 4.35 6.83 3.78 1.05 1.04 0.71 0.49 0.66 1.29 1.62 2.07 2.02 2.54 3.12 2.44 2.14 2.03 1.96 1.63 2.16 1.09 2.28 2.13 2.43 2.76 3.11 2.34 1.72 2.13 2.24 1.89 1.67 1.37

GFSGBSN_prec_precacc_351.txt.gz
Total_Precipitation_Accumulation
1.34 1.36 1.26 1.08 0.81 0.54 0.43 0.37 0.30 0.22 0.20 0.15 0.13 0.11 0.09 0.09 0.09 0.07 0.05 0.03 0.04 0.04 0.04 0.05 0.06 0.08 0.05 0.02 0.00 0.00 0.00 0.00 0.00 0.00 0.00 0.00 0.00 0.00 0.00 0.00 0.00 0.00 0.00 0.00 0.01 0.01 0.01
1.12 1.10 1.36 1.61 1.74 1.67 1.47 1.23 0.96 0.77 0.66 0.52 0.39 0.29 0.23 0.16 0.12 0.10 0.09 0.06 0.05 0.05 0.05 0.07 0.10 0.14 0.09 0.03 0.00 0.00 0.00 0.00 0.00 0.00 0.00 0.00 0.00 0.00 0.00 0.00 0.00 0.00 0.00 0.00 0.02 0.00 0.00
1.46 1.38 1.17 1.08 1.22 1.43 1.60 1.61 1.54 1.36 1.20 1.09 1.00 0.89 0.71 0.56 0.37 0.23 0.16 0.10 0.08 0.12 0.14 0.16 0.20 0.16 0.10 0.01 0.00 0.00 0.00 0.00 0.00 0.00 0.00 0.00 0.00 0.00 0.00 0.00 0.00 0.00 0.00 0.00 0.00 0.01 0.01
1.56 1.56 1.62 1.57 1.30 1.18 1.21 1.37 1.36 1.37 1.40 1.29 1.26 1.13 0.95 0.75 0.63 0.48 0.30 0.20 0.17 0.13 0.17 0.30 0.39 0.26 0.13 0.00 0.00 0.00 0.00 0.00 0.00 0.00 0.00 0.00 0.00 0.00 0.00 0.00 0.00 0.00 0.00 0.00 0.00 0.01 0.02
1.30 1.33 1.46 1.56 1.57 1.51 1.48 1.47 1.52 1.46 1.32 1.31 1.34 1.38 1.21 1.02 0.76 0.53 0.43 0.33 0.24 0.26 0.33 0.35 0.45 0.36 0.09 0.00 0.00 0.00 0.00 0.02 0.00 0.00 0.00 0.00 0.00 0.00 0.00 0.00 0.01 0.00 0.00 0.00 0.00 0.00 0.01
1.46 1.30 1.22 1.17 1.20 1.22 1.24 1.31 1.41 1.47 1.49 1.36 1.38 1.41 1.44 1.35 1.21 1.01 0.79 0.60 0.48 0.52 0.60 0.68 0.58 0.29 0.04 0.00 0.00 0.00 0.00 0.02 0.01 0.00 0.00 0.00 0.00 0.01 0.00 0.01 0.01 0.00 0.00 0.00 0.02 0.07 0.00
2.08 1.92 1.69 1.54 1.38 1.17 1.08 1.12 1.16 1.19 1.28 1.30 1.21 1.23 1.26 1.31 1.37 1.45 1.28 1.22 1.09 0.94 0.72 0.36 0.21 0.08 0.00 0.00 0.00 0.00 0.00 0.00 0.00 0.00 0.02 0.00 0.02 0.01 0.00 0.00 0.00 0.01 0.01 0.00 0.00 0.00 0.00
2.10 2.00 1.94 1.89 1.78 1.70 1.56 1.42 1.19 1.09 1.04 1.19 1.41 1.41 1.21 1.19 1.36 1.58 1.46 1.31 0.92 0.70 0.59 0.09 0.02 0.01 0.01 0.00 0.00 0.00 0.01 0.04 0.03 0.03 0.03 0.04 0.03 0.00 0.00 0.00 0.00 0.02 0.03 0.01 0.01 0.01 0.02
1.94 1.99 1.88 1.81 1.79 1.71 1.64 1.60 1.48 1.15 0.92 0.98 1.21 1.57 1.73 1.61 1.75 1.94 1.81 1.30 0.65 0.61 0.97 0.27 0.07 0.03 0.02 0.01 0.03 0.03 0.00 0.02 0.07 0.06 0.06 0.05 0.02 0.00 0.02 0.01 0.01 0.01 0.05 0.03 0.03 0.02 0.00
1.86 1.79 1.77 1.82 1.90 1.88 1.80 1.71 1.42 1.16 1.11 1.18 1.26 1.61 1.96 2.50 3.20 2.16 1.95 0.99 0.84 1.37 1.58 0.60 0.10 0.05 0.03 0.03 0.06 0.00 0.00 0.01 0.08 0.08 0.15 0.20 0.03 0.03 0.03 0.01 0.07 0.06 0.00 0.02 0.02 0.12 0.08
1.88 1.88 1.82 1.75 1.74 1.72 1.70 1.74 1.73 1.54 1.32 1.27 1.37 1.72 2.13 2.58 2.22 2.15 1.42 0.70 1.53 2.32 3.65 0.80 0.06 0.01 0.05 0.03 0.02 0.02 0.00 0.02 0.06 0.15 0.47 0.26 0.03 0.06 0.07 0.04 0.07 0.05 0.00 0.02 0.04 0.12 0.27
1.85 1.83 1.93 1.95 1.76 1.59 1.58 1.64 1.61 1.58 1.59 1.55 1.50 1.69 2.36 2.57 2.31 1.26 0.71 1.40 3.20 5.51 4.81 0.67 0.03 0.01 0.02 0.01 0.01 0.01 0.05 0.04 0.04 0.21 0.26 0.07 0.02 0.13 0.20 0.01 0.03 0.05 0.08 0.11 0.15 0.33 0.82
2.39 1.94 1.83 1.87 1.90 1.95 1.73 1.57 1.48 1.62 1.72 1.75 1.85 1.95 2.28 1.93 2.31 1.48 1.74 3.41 6.17 6.50 2.50 0.40 0.04 0.02 0.01 0.01 0.00 0.03 0.12 0.13 0.31 0.57 0.39 0.14 0.12 0.07 0.15 0.19 0.08 0.15 0.40 0.95 0.95 0.87 0.66
2.35 2.31 2.17 1.97 1.84 1.84 1.85 1.78 1.61 1.56 1.68 1.94 2.24 2.54 2.50 2.10 1.71 2.18 3.82 5.97 7.19 3.64 1.18 0.18 0.05 0.07 0.10 0.07 0.04 0.03 0.18 0.36 0.48 0.27 0.44 0.61 0.59 0.22 0.31 0.42 0.26 0.16 0.54 1.02 0.95 0.40 0.17
2.37 2.30 2.19 1.99 1.73 1.64 1.72 1.87 1.89 1.96 2.04 2.23 2.94 3.31 3.44 2.92 2.73 3.50 5.91 9.10 5.72 1.84 0.35 0.08 0.10 0.24 0.32 0.28 0.18 0.19 0.49 0.83 0.76 0.44 1.00 1.05 0.77 0.36 0.34 0.30 0.41 0.75 0.87 0.36 1.26 0.94 1.06
2.92 2.47 2.30 2.15 1.93 1.76 1.73 1.68 2.01 2.21 2.38 2.65 2.82 3.36 3.29 2.86 3.57 5.21 7.72 7.07 3.26 0.81 0.14 0.11 0.38 0.31 0.37 0.33 0.44 0.52 0.85 1.32 0.70 0.54 1.04 1.50 1.67 0.37 0.37 0.57 0.48 0.73 0.72 1.69 3.11 3.00 1.84
3.58 2.88 2.50 2.40 2.28 1.79 1.70 1.67 1.87 2.20 2.31 3.01 3.54 4.47 3.17 2.74 5.24 8.20 8.83 5.01 2.17 0.64 0.34 0.46 0.39 0.55 0.38 0.36 0.59 0.84 1.23 1.41 1.04 0.43 0.75 1.31 1.89 0.98 0.66 1.06 0.88 0.94 1.65 2.84 3.36 2.47 2.09
3.45 3.58 3.10 2.71 2.79 2.38 1.85 1.95 2.13 2.37 2.95 4.14 4.78 4.89 3.21 3.50 6.51 7.46 5.66 2.90 1.40 0.58 0.59 0.89 0.70 0.46 0.58 0.49 0.57 1.00 1.39 1.40 0.97 0.72 0.78 1.21 1.91 1.42 0.85 0.52 0.47 0.99 1.85 3.00 5.05 4.24 3.35
3.36 3.41 3.68 3.35 3.27 3.46 2.75 2.39 2.60 2.88 3.39 4.33 5.85 4.25 4.20 4.81 5.88 4.41 2.92 2.19 1.41 0.70 0.63 1.31 1.12 0.77 0.71 0.65 1.22 0.79 0.91 0.98 1.03 1.00 1.14 1.27 1.96 1.98 1.40 1.32 1.06 1.77 1.92 2.23 3.10 3.82 3.76
2.96 3.19 3.04 3.58 3.44 4.01 3.76 3.18 2.90 3.11 4.16 5.09 6.76 6.00 6.32 6.42 4.12 2.61 2.04 1.68 1.35 0.72 0.51 0.77 1.10 0.69 0.96 1.21 1.18 1.18 0.68 0.79 0.99 0.89 0.82 1.74 1.48 1.97 1.92 2.08 1.73 1.58 1.25 1.64 2.63 3.16 2.33
2.26 2.67 3.14 3.15 3.74 4.11 4.44 4.22 3.99 4.12 4.91 8.02 8.88 4.82 3.12 4.01 2.89 2.07 1.87 1.89 1.09 1.03 1.03 0.79 1.15 0.88 1.00 1.52 1.34 1.02 0.79 1.07 1.24 1.03 0.98 2.03 2.00 1.65 1.55 1.03 0.70 1.05 1.07 0.89 1.57 1.42 1.99
2.00 2.04 2.62 3.31 3.79 3.69 4.22 4.63 4.59 4.86 6.54 10.49 8.91 3.28 1.78 1.13 1.04 1.73 1.69 1.69 0.95 0.85 1.49 1.35 1.33 0.89 0.96 1.34 1.28 1.17 1.26 1.18 1.46 0.99 1.29 2.15 2.60 2.03 2.22 1.04 0.94 1.11 1.05 0.70 0.96 1.12 1.46
1.84 1.80 2.20 2.82 3.19 3.30 3.89 4.53 4.66 4.88 7.81 12.76 7.15 2.10 2.49 1.75 0.95 1.43 1.69 1.38 1.07 1.30 1.19 0.77 1.03 1.16 1.18 1.19 0.94 0.62 0.78 1.04 1.14 1.13 1.39 2.21 3.12 2.91 3.21 1.42 1.19 1.98 1.76 1.29 1.16 1.09 1.14
2.03 1.92 1.95 2.39 2.56 3.11 3.72 4.07 4.66 5.34 6.49 7.23 4.52 2.48 3.33 2.84 1.32 1.15 0.67 0.66 0.81 0.92 1.97 0.97 0.91 1.32 1.06 0.75 0.88 1.06 1.14 1.16 1.25 1.43 1.65 2.23 2.29 3.18 3.21 2.17 3.06 2.65 1.25 1.14 1.56 1.31 1.09
2.30 2.17 2.22 2.43 2.67 2.90 3.46 3.67 4.32 5.27 5.87 5.62 4.21 3.14 3.88 3.04 1.23 0.96 0.66 0.68 0.64 0.90 1.19 1.40 1.16 1.04 0.77 0.87 1.88 2.55 2.49 2.30 1.64 1.48 1.80 1.93 2.03 3.18 3.44 2.54 2.21 0.86 0.98 1.30 1.71 1.56 1.23
2.40 2.29 2.31 2.41 2.64 2.85 3.26 3.50 3.48 4.43 5.69 5.93 5.01 3.78 4.52 4.57 1.58 0.71 0.73 0.54 0.82 1.26 1.40 1.13 1.23 1.29 1.41 1.90 2.91 3.14 2.30 1.98 1.64 1.25 0.92 1.35 2.07 3.26 3.28 2.80 2.22 1.56 0.85 0.55 0.99 1.74 1.40
2.20 2.19 2.00 2.14 2.39 2.53 2.90 3.23 3.13 3.70 4.92 6.33 5.96 3.70 5.65 5.58 1.36 0.79 1.23 1.11 0.82 1.09 1.43 1.16 1.27 1.55 1.60 2.95 3.79 2.86 1.93 1.09 1.54 1.71 1.56 1.87 2.98 3.38 2.68 2.56 1.67 1.39 0.65 0.32 1.74 2.19 1.66
2.16 2.25 1.96 2.01 2.12 2.18 2.52 2.82 3.00 3.19 4.33 5.73 6.33 3.28 5.36 6.05 2.10 0.94 0.97 0.89 0.71 0.95 1.72 1.65 2.19 2.17 2.65 2.79 2.75 2.60 2.37 1.96 1.83 1.66 1.88 2.06 2.76 2.81 2.60 2.92 2.08 1.33 1.16 1.88 2.49 1.87 1.62
2.15 2.35 2.05 2.02 1.98 2.06 2.18 2.47 2.92 3.28 4.11 5.32 5.94 3.58 4.35 6.83 3.78 1.05 1.04 0.71 0.49 0.66 1.29 1.62 2.07 2.02 2.54 3.12 2.44 2.14 2.03 1.96 1.63 2.16 1.09 2.29 2.13 2.43 2.76 3.12 2.35 1.73 2.14 2.24 1.89 1.67 1.37

GFSGBSN_prec_precacc_354.txt.gz
Total_Precipitation_Accumulation
1.34 1.36 1.26 1.08 0.81 0.54 0.43 0.37 0.30 0.22 0.20 0.15 0.13 0.11 0.09 0.09 0.09 0.07 0.05 0.03 0.04 0.04 0.04 0.05 0.06 0.08 0.05 0.02 0.00 0.00 0.00 0.00 0.00 0.00 0.00 0.00 0.00 0.00 0.00 0.00 0.00 0.00 0.00 0.00 0.01 0.01 0.01
1.12 1.10 1.36 1.61 1.74 1.67 1.47 1.23 0.96 0.77 0.66 0.52 0.39 0.29 0.23 0.16 0.12 0.10 0.09 0.06 0.05 0.05 0.05 0.07 0.10 0.14 0.09 0.03 0.00 0.00 0.00 0.00 0.00 0.00 0.00 0.00 0.00 0.00 0.00 0.00 0.00 0.00 0.00 0.00 0.02 0.00 0.00
1.46 1.38 1.17 1.08 1.22 1.43 1.60 1.61 1.54 1.36 1.20 1.09 1.00 0.89 0.71 0.56 0.37 0.23 0.16 0.10 0.08 0.12 0.14 0.16 0.20 0.16 0.10 0.01 0.00 0.00 0.00 0.00 0.00 0.00 0.00 0.00 0.00 0.00 0.00 0.00 0.00 0.00 0.00 0.00 0.00 0.01 0.01
1.56 1.56 1.62 1.57 1.30 1.18 1.21 1.37 1.36 1.37 1.40 1.29 1.26 1.13 0.95 0.75 0.63 0.48 0.30 0.20 0.17 0.13 0.17 0.30 0.39 0.26 0.13 0.00 0.00 0.00 0.00 0.00 0.00 0.00 0.00 0.00 0.00 0.00 0.00 0.00 0.00 0.00 0.00 0.00 0.00 0.01 0.02
1.30 1.33 1.46 1.56 1.57 1.51 1.48 1.47 1.52 1.46 1.32 1.31 1.34 1.38 1.21 1.02 0.76 0.53 0.43 0.33 0.24 0.26 0.33 0.35 0.45 0.36 0.09 0.00 0.00 0.00 0.00 0.02 0.00 0.00 0.00 0.00 0.00 0.00 0.00 0.00 0.01 0.00 0.00 0.00 0.00 0.00 0.01
1.46 1.30 1.22 1.17 1.20 1.22 1.24 1.31 1.41 1.47 1.49 1.36 1.38 1.41 1.44 1.35 1.21 1.01 0.79 0.60 0.48 0.52 0.60 0.68 0.58 0.29 0.04 0.00 0.00 0.00 0.00 0.02 0.01 0.00 0.00 0.00 0.00 0.01 0.00 0.01 0.01 0.00 0.00 0.00 0.02 0.07 0.00
2.08 1.92 1.69 1.54 1.38 1.17 1.08 1.12 1.16 1.19 1.28 1.30 1.21 1.23 1.26 1.31 1.37 1.45 1.28 1.22 1.09 0.94 0.72 0.36 0.21 0.08 0.00 0.00 0.00 0.00 0.00 0.00 0.00 0.00 0.02 0.00 0.02 0.01 0.00 0.00 0.00 0.01 0.01 0.00 0.00 0.00 0.00
2.10 2.00 1.94 1.89 1.78 1.70 1.56 1.42 1.19 1.09 1.04 1.19 1.41 1.41 1.21 1.19 1.36 1.58 1.46 1.31 0.92 0.70 0.59 0.09 0.02 0.01 0.01 0.00 0.00 0.00 0.01 0.04 0.03 0.03 0.03 0.04 0.03 0.00 0.00 0.00 0.00 0.02 0.03 0.01 0.01 0.01 0.02
1.94 1.99 1.88 1.81 1.79 1.71 1.64 1.60 1.48 1.15 0.92 0.98 1.21 1.57 1.73 1.61 1.75 1.94 1.81 1.30 0.65 0.61 0.97 0.27 0.07 0.03 0.02 0.01 0.03 0.03 0.00 0.02 0.07 0.06 0.06 0.05 0.02 0.00 0.02 0.01 0.01 0.01 0.05 0.03 0.03 0.02 0.00
1.86 1.79 1.77 1.82 1.90 1.88 1.80 1.71 1.42 1.16 1.11 1.18 1.26 1.61 1.96 2.50 3.20 2.16 1.95 0.99 0.84 1.37 1.58 0.60 0.10 0.05 0.03 0.03 0.06 0.00 0.00 0.01 0.08 0.08 0.15 0.20 0.03 0.03 0.03 0.01 0.07 0.06 0.00 0.02 0.02 0.12 0.08
1.88 1.88 1.82 1.75 1.74 1.72 1.70 1.74 1.73 1.54 1.32 1.27 1.37 1.72 2.13 2.58 2.22 2.15 1.42 0.70 1.53 2.32 3.65 0.80 0.06 0.01 0.05 0.03 0.02 0.02 0.00 0.02 0.06 0.15 0.47 0.26 0.03 0.06 0.07 0.04 0.07 0.05 0.00 0.02 0.04 0.12 0.27
1.85 1.83 1.93 1.95 1.76 1.59 1.58 1.64 1.61 1.58 1.59 1.55 1.50 1.69 2.36 2.57 2.31 1.26 0.71 1.40 3.20 5.51 4.81 0.67 0.03 0.01 0.02 0.01 0.01 0.01 0.05 0.04 0.04 0.21 0.26 0.07 0.02 0.13 0.20 0.01 0.03 0.05 0.08 0.11 0.15 0.33 0.82
2.39 1.94 1.83 1.87 1.90 1.95 1.73 1.57 1.48 1.62 1.72 1.75 1.85 1.95 2.28 1.93 2.31 1.48 1.74 3.41 6.17 6.50 2.50 0.40 0.04 0.02 0.01 0.01 0.00 0.03 0.12 0.13 0.31 0.57 0.39 0.14 0.12 0.07 0.15 0.19 0.09 0.15 0.41 0.98 1.00 0.91 0.68
2.35 2.31 2.17 1.97 1.84 1.84 1.85 1.78 1.61 1.56 1.68 1.94 2.24 2.54 2.50 2.10 1.71 2.18 3.82 5.97 7.19 3.64 1.18 0.18 0.05 0.07 0.10 0.07 0.04 0.03 0.18 0.36 0.48 0.27 0.44 0.61 0.59 0.22 0.32 0.43 0.27 0.16 0.54 1.04 0.97 0.41 0.18
2.37 2.30 2.19 1.99 1.73 1.64 1.72 1.87 1.89 1.96 2.04 2.23 2.94 3.31 3.44 2.92 2.73 3.50 5.91 9.10 5.72 1.84 0.35 0.08 0.10 0.24 0.32 0.28 0.18 0.19 0.49 0.83 0.76 0.44 1.01 1.06 0.78 0.37 0.35 0.31 0.42 0.77 0.88 0.36 1.30 0.95 1.09
2.92 2.47 2.30 2.15 1.93 1.76 1.73 1.68 2.01 2.21 2.38 2.65 2.82 3.36 3.29 2.86 3.57 5.21 7.72 7.07 3.26 0.81 0.14 0.11 0.38 0.31 0.37 0.33 0.44 0.52 0.85 1.32 0.70 0.54 1.07 1.54 1.73 0.37 0.38 0.66 0.55 0.74 0.75 1.69 3.16 3.08 1.90
3.58 2.88 2.50 2.40 2.28 1.79 1.70 1.67 1.87 2.20 2.31 3.01 3.54 4.47 3.17 2.74 5.24 8.20 8.83 5.01 2.17 0.64 0.34 0.46 0.39 0.55 0.38 0.36 0.59 0.84 1.23 1.41 1.04 0.43 0.76 1.37 1.97 1.00 0.71 1.20 1.00 1.00 1.71 2.85 3.37 2.58 2.17
3.45 3.58 3.10 2.71 2.79 2.38 1.85 1.95 2.13 2.37 2.95 4.14 4.78 4.89 3.21 3.50 6.51 7.46 5.66 2.90 1.40 0.58 0.59 0.89 0.70 0.46 0.58 0.49 0.57 1.00 1.39 1.41 0.97 0.74 0.81 1.30 1.98 1.46 0.94 0.54 0.52 1.03 1.88 3.00 5.07 4.31 3.42
3.36 3.41 3.68 3.35 3.27 3.46 2.75 2.39 2.60 2.88 3.39 4.33 5.85 4.25 4.20 4.81 5.88 4.41 2.92 2.19 1.41 0.70 0.63 1.31 1.12 0.77 0.72 0.65 1.23 0.79 0.92 0.99 1.03 1.01 1.17 1.29 1.99 1.99 1.42 1.33 1.08 1.85 1.99 2.29 3.11 3.84 3.80
2.96 3.19 3.04 3.58 3.44 4.01 3.76 3.18 2.90 3.11 4.16 5.09 6.76 6.00 6.32 6.42 4.12 2.61 2.04 1.68 1.35 0.72 0.51 0.77 1.10 0.69 0.96 1.21 1.19 1.19 0.69 0.79 0.99 0.89 0.82 1.75 1.49 1.97 1.99 2.32 1.81 1.63 1.32 1.70 2.66 3.18 2.35
2.26 2.67 3.14 3.15 3.74 4.11 4.44 4.22 3.99 4.12 4.91 8.02 8.88 4.82 3.12 4.01 2.89 2.07 1.87 1.89 1.09 1.03 1.03 0.79 1.15 0.88 1.00 1.52 1.34 1.02 0.79 1.07 1.24 1.03 0.98 2.04 2.05 1.70 1.65 1.18 0.73 1.07 1.09 0.92 1.60 1.46 2.02
2.00 2.04 2.62 3.31 3.79 3.69 4.22 4.63 4.59 4.86 6.54 10.49 8.91 3.28 1.78 1.13 1.04 1.73 1.69 1.69 0.95 0.85 1.49 1.35 1.33 0.89 0.96 1.34 1.28 1.18 1.26 1.19 1.47 0.99 1.30 2.18 2.65 2.11 2.28 1.08 0.96 1.11 1.08 0.71 0.98 1.14 1.48
1.84 1.80 2.20 2.82 3.19 3.30 3.89 4.53 4.66 4.88 7.81 12.76 7.15 2.10 2.49 1.75 0.95 1.43 1.69 1.38 1.07 1.30 1.19 0.77 1.03 1.16 1.18 1.19 0.94 0.62 0.78 1.04 1.15 1.14 1.41 2.24 3.16 2.94 3.23 1.42 1.19 2.02 1.87 1.36 1.19 1.12 1.23
2.03 1.92 1.95 2.39 2.56 3.11 3.72 4.07 4.66 5.34 6.49 7.23 4.52 2.48 3.33 2.84 1.32 1.15 0.67 0.66 0.81 0.92 1.97 0.97 0.91 1.32 1.06 0.75 0.88 1.06 1.14 1.16 1.25 1.43 1.66 2.24 2.30 3.19 3.22 2.18 3.10 2.80 1.35 1.26 1.70 1.36 1.17
2.30 2.17 2.22 2.43 2.67 2.90 3.46 3.67 4.32 5.27 5.87 5.62 4.21 3.14 3.88 3.04 1.23 0.96 0.66 0.68 0.64 0.90 1.19 1.40 1.16 1.04 0.77 0.87 1.88 2.55 2.49 2.30 1.64 1.48 1.80 1.93 2.03 3.18 3.44 2.54 2.26 0.91 1.06 1.36 1.85 1.66 1.35
2.40 2.29 2.31 2.41 2.64 2.85 3.26 3.50 3.48 4.43 5.69 5.93 5.01 3.78 4.52 4.57 1.58 0.71 0.73 0.54 0.82 1.26 1.40 1.13 1.23 1.29 1.41 1.90 2.91 3.14 2.30 1.99 1.65 1.25 0.92 1.35 2.07 3.27 3.28 2.80 2.26 1.63 0.87 0.56 1.05 1.76 1.41
2.20 2.19 2.00 2.14 2.39 2.53 2.90 3.23 3.13 3.70 4.92 6.33 5.96 3.70 5.65 5.58 1.36 0.79 1.23 1.11 0.82 1.09 1.43 1.16 1.27 1.55 1.60 2.95 3.79 2.87 1.94 1.09 1.54 1.72 1.58 1.88 2.99 3.38 2.68 2.57 1.68 1.40 0.65 0.32 1.74 2.19 1.67
2.16 2.25 1.96 2.01 2.12 2.18 2.52 2.82 3.00 3.19 4.33 5.73 6.33 3.28 5.36 6.05 2.10 0.94 0.97 0.89 0.71 0.95 1.72 1.65 2.19 2.17 2.65 2.79 2.75 2.60 2.37 1.96 1.83 1.67 1.88 2.07 2.76 2.82 2.61 2.92 2.08 1.34 1.16 1.89 2.50 1.88 1.62
2.15 2.35 2.05 2.02 1.98 2.06 2.18 2.47 2.92 3.28 4.11 5.32 5.94 3.58 4.35 6.83 3.78 1.05 1.04 0.71 0.49 0.66 1.29 1.62 2.07 2.02 2.54 3.12 2.44 2.14 2.03 1.96 1.63 2.16 1.09 2.29 2.14 2.43 2.77 3.12 2.36 1.74 2.14 2.24 1.90 1.67 1.37